TimeEDT,TemperatureF,Dew PointF,Humidity,Sea Level PressureIn,VisibilityMPH,Wind Direction,Wind SpeedMPH,Gust SpeedMPH,PrecipitationIn,Events,Conditions,WindDirDegrees,DateUTC
12:51 AM,46.9,45.0,93,29.85,8.0,NNW,11.5,-,0.02,,Overcast,330,2013-05-25 04:51:00
1:51 AM,46.0,45.0,96,29.82,4.0,NNW,11.5,-,0.01,Rain,Light Rain,330,2013-05-25 05:51:00
2:51 AM,46.0,46.0,100,29.83,4.0,NW,10.4,-,0.02,Rain,Light Rain,310,2013-05-25 06:51:00
3:15 AM,46.4,46.4,100,29.82,3.0,NW,10.4,-,0.01,Rain,Light Rain,320,2013-05-25 07:15:00
3:26 AM,46.4,46.4,100,29.81,2.5,NNW,9.2,-,0.02,Rain,Light Rain,330,2013-05-25 07:26:00
3:34 AM,46.4,46.4,100,29.81,3.0,NNW,9.2,-,0.03,Rain,Light Rain,330,2013-05-25 07:34:00
3:51 AM,46.0,46.0,100,29.81,3.0,NNW,6.9,-,0.03,Rain,Light Rain,340,2013-05-25 07:51:00
4:01 AM,46.4,46.4,100,29.81,2.5,NNW,9.2,-,0.01,Rain,Light Rain,330,2013-05-25 08:01:00
4:14 AM,46.4,44.6,93,29.80,3.0,NNW,9.2,-,0.02,Rain,Rain,330,2013-05-25 08:14:00
4:30 AM,46.4,44.6,93,29.81,4.0,NW,9.2,-,0.04,Rain,Light Rain,320,2013-05-25 08:30:00
4:51 AM,46.0,45.0,96,29.81,4.0,NNW,11.5,-,0.06,Rain,Light Rain,330,2013-05-25 08:51:00
5:48 AM,44.6,44.6,100,29.79,2.5,NNW,9.2,-,0.07,Rain,Light Rain,340,2013-05-25 09:48:00
5:51 AM,45.0,45.0,100,29.80,2.5,NNW,11.5,-,0.07,Rain,Rain,340,2013-05-25 09:51:00
6:10 AM,44.6,44.6,100,29.79,3.0,NW,9.2,-,0.04,Rain,Rain,320,2013-05-25 10:10:00
6:31 AM,46.4,44.6,93,29.79,5.0,NW,11.5,-,0.08,Rain,Light Rain,320,2013-05-25 10:31:00
6:51 AM,46.0,45.0,96,29.81,4.0,NW,9.2,-,0.09,Rain,Rain,320,2013-05-25 10:51:00
7:10 AM,46.4,44.6,93,29.79,3.0,NNW,10.4,-,0.03,Rain,Light Rain,330,2013-05-25 11:10:00
7:43 AM,46.4,44.6,93,29.79,7.0,NW,10.4,-,0.04,Rain,Light Rain,320,2013-05-25 11:43:00
7:51 AM,46.0,45.0,96,29.80,6.0,NW,9.2,19.6,0.04,Rain,Light Rain,320,2013-05-25 11:51:00
7:57 AM,46.4,44.6,93,29.79,8.0,NW,11.5,18.4,0.00,Rain,Light Rain,320,2013-05-25 11:57:00
8:10 AM,46.4,44.6,93,29.79,3.0,NNW,8.1,-,0.01,Rain,Light Rain,330,2013-05-25 12:10:00
8:13 AM,46.4,46.4,100,29.79,4.0,NNW,8.1,-,0.01,Rain,Light Rain,330,2013-05-25 12:13:00
8:28 AM,46.4,44.6,93,29.79,2.5,NNW,9.2,-,0.01,Rain,Light Rain,330,2013-05-25 12:28:00
8:51 AM,46.0,45.0,96,29.80,1.8,NNW,9.2,-,0.02,Rain,Light Rain,330,2013-05-25 12:51:00
9:06 AM,46.4,44.6,93,29.79,2.5,NNW,10.4,-,0.02,Rain,Light Rain,330,2013-05-25 13:06:00
9:13 AM,46.4,44.6,93,29.79,4.0,NNW,8.1,-,0.02,Rain,Light Rain,330,2013-05-25 13:13:00
9:51 AM,46.0,45.0,96,29.79,4.0,NNW,9.2,-,0.05,Rain,Light Rain,330,2013-05-25 13:51:00
10:07 AM,46.4,44.6,93,29.78,3.0,NNW,10.4,-,0.01,Rain,Light Rain,330,2013-05-25 14:07:00
10:14 AM,46.4,44.6,93,29.78,2.5,NNW,10.4,-,0.01,Rain,Light Rain,330,2013-05-25 14:14:00
10:28 AM,46.4,44.6,93,29.77,1.5,NW,12.7,-,0.04,Rain,Heavy Rain,320,2013-05-25 14:28:00
10:35 AM,46.4,44.6,93,29.77,2.5,NNW,10.4,-,0.06,Rain,Light Rain,330,2013-05-25 14:35:00
10:37 AM,46.4,44.6,93,29.77,3.0,NW,12.7,-,0.06,Rain,Light Rain,320,2013-05-25 14:37:00
10:51 AM,46.9,46.0,97,29.78,5.0,NW,12.7,-,0.07,Rain,Light Rain,320,2013-05-25 14:51:00
10:59 AM,46.4,46.4,100,29.77,5.0,NW,13.8,20.7,0.01,Rain,Light Rain,320,2013-05-25 14:59:00
11:12 AM,46.4,44.6,93,29.77,6.0,NW,11.5,-,0.01,Rain,Light Rain,320,2013-05-25 15:12:00
11:30 AM,46.4,44.6,93,29.77,2.5,NW,12.7,-,0.01,Rain,Light Rain,320,2013-05-25 15:30:00
11:47 AM,46.4,46.4,100,29.76,1.8,NW,12.7,20.7,0.02,Rain,Light Rain,320,2013-05-25 15:47:00
11:51 AM,46.9,46.0,97,29.77,1.8,NW,13.8,20.7,0.03,Rain,Light Rain,320,2013-05-25 15:51:00
12:31 PM,46.4,46.4,100,29.75,2.0,NW,11.5,20.7,0.03,Rain,Light Rain,320,2013-05-25 16:31:00
12:51 PM,46.9,46.0,97,29.76,2.0,NW,12.7,19.6,0.04,Rain,Light Rain,310,2013-05-25 16:51:00
1:01 PM,46.4,46.4,100,29.75,1.8,NW,11.5,-,0.01,Rain,Light Rain,320,2013-05-25 17:01:00
1:26 PM,46.4,44.6,93,29.74,1.8,NW,12.7,23.0,0.03,,Overcast,320,2013-05-25 17:26:00
1:35 PM,46.4,44.6,93,29.75,2.0,NW,13.8,24.2,0.03,,Overcast,320,2013-05-25 17:35:00
1:51 PM,46.0,45.0,96,29.76,1.8,NNW,15.0,24.2,0.04,,Overcast,330,2013-05-25 17:51:00
2:10 PM,46.4,46.4,100,29.75,1.8,NNW,10.4,-,0.02,Rain,Light Rain,330,2013-05-25 18:10:00
2:26 PM,46.4,44.6,93,29.75,2.0,NW,13.8,20.7,0.02,Rain,Light Rain,310,2013-05-25 18:26:00
2:51 PM,46.0,44.1,93,29.76,2.5,NW,12.7,21.9,0.03,Rain,Light Rain,320,2013-05-25 18:51:00
3:28 PM,44.6,42.8,93,29.74,1.8,NNW,17.3,25.3,0.01,,Overcast,330,2013-05-25 19:28:00
3:35 PM,44.6,42.8,93,29.74,2.0,NNW,15.0,25.3,0.01,,Overcast,330,2013-05-25 19:35:00
3:37 PM,44.6,42.8,93,29.74,2.5,NW,13.8,25.3,0.01,Rain,Light Rain,320,2013-05-25 19:37:00
3:43 PM,44.6,42.8,93,29.74,3.0,NW,15.0,21.9,0.01,Rain,Light Rain,320,2013-05-25 19:43:00
3:51 PM,45.0,43.0,93,29.75,3.0,NNW,18.4,24.2,0.01,Rain,Light Rain,330,2013-05-25 19:51:00
4:08 PM,44.6,42.8,93,29.74,3.0,NW,11.5,21.9,0.00,Rain,Light Rain,310,2013-05-25 20:08:00
4:51 PM,43.0,42.1,97,29.75,4.0,NW,12.7,21.9,0.01,Rain,Light Rain,310,2013-05-25 20:51:00
5:13 PM,42.8,41.0,93,29.74,5.0,NW,12.7,21.9,0.00,Rain,Light Rain,320,2013-05-25 21:13:00
5:34 PM,42.8,41.0,93,29.74,6.0,NW,13.8,-,0.01,,Overcast,310,2013-05-25 21:34:00
5:51 PM,43.0,39.9,89,29.75,10.0,NW,13.8,-,0.01,,Overcast,320,2013-05-25 21:51:00
6:51 PM,43.0,39.0,86,29.75,10.0,NW,11.5,-,N/A,,Overcast,310,2013-05-25 22:51:00
6:58 PM,42.8,39.2,87,29.75,10.0,NW,11.5,-,N/A,,Overcast,310,2013-05-25 22:58:00
7:51 PM,43.0,37.9,82,29.76,10.0,NW,9.2,-,0.00,,Overcast,310,2013-05-25 23:51:00
8:51 PM,42.1,37.0,82,29.77,10.0,NW,15.0,21.9,N/A,,Overcast,310,2013-05-26 00:51:00
9:51 PM,39.0,36.0,89,29.78,9.0,NNW,13.8,25.3,0.00,Rain,Light Rain,340,2013-05-26 01:51:00
10:06 PM,37.4,35.6,93,29.77,9.0,NW,11.5,21.9,0.02,Rain,Light Rain,320,2013-05-26 02:06:00
10:48 PM,33.8,33.8,100,29.76,5.0,NW,11.5,-,0.09,Rain,Rain,310,2013-05-26 02:48:00
10:51 PM,34.0,33.1,96,29.77,6.0,NW,9.2,17.3,0.10,Rain,Rain,320,2013-05-26 02:51:00
11:11 PM,33.8,33.8,100,29.76,8.0,NW,9.2,-,0.02,Rain,Light Rain,310,2013-05-26 03:11:00
11:51 PM,36.0,34.0,93,29.75,10.0,NNW,9.2,-,0.04,Rain,Light Rain,330,2013-05-26 03:51:00